IRIDIUM 47 [B] (25106 NORAD) Tracking and Keplerian Element Data

This shows tracking and keplerian element data for the satellite.

Feedback or suggestion? Click here.




ElementValue
Catalog25106
NameIRIDIUM 47 [B]
Epoch Orbit7681
Epoch Day198.80176179
Epoch Year2018
RAAN89.9629
Inclination86.4218
Eccentricity0.0002258
Argument of Perigee79.9416
Mean Anonmoly280.2037
Mean Motion14.38609747
Decay Rate1.52E-06
L11 25106U 97082C 18198.80176179 .00000152 00000-0 43121-4 0 9999
L22 25106 86.4218 89.9629 0002258 79.9416 280.2037 14.38609747 76814

Live tracking and technical data element details for IRIDIUM 47 [B] (NORAD 25106). IRIDIUM 47 [B] can be tracked NOW for your location showing map with azimuth and elevation plus other details from your city location.

Track the satellite on the map from your city or location and see movement details for azimuth, elevation, latitude, longitude, range, height, and movement on the map or in text.







IsCatalogInMostPopularTable: catalog: 25106, numindb: 33
Update: records affected: 1



GetName: 25106 IRIDIUM 47 [B]

Hit Count: updated at: Fri, 20 Jul 2018 07:04:35 GMT